Wichita, KS

6:34 PM CDT on April 24, 2017 (GMT -0500)
Wichita Eisenhower National Airport

Weather History for KICT - May, 2013

Change the Weather History Date:

Wednesday, May 8, 2013

  Actual Average Record
Temperature  
Mean Temperature 68 °F 63 °F  
Max Temperature 78 °F 74 °F 97 °F (1989)
Min Temperature 58 °F 53 °F 33 °F (1984)
Degree Days  
Heating Degree Days 0 4  
Month to date heating degree days 94 35  
Since 1 July heating degree days 4452 4543  
Cooling Degree Days 3 2  
Month to date cooling degree days 3 14  
Year to date cooling degree days 19 40  
Growing Degree Days 18 (Base 50)    
Moisture  
Dew Point 58 °F    
Average Humidity 78    
Maximum Humidity 100    
Minimum Humidity 56    
Precipitation  
Precipitation 0.87 in 0.14 in 2.45 in (1940)
Month to date precipitation 1.83 1.07  
Year to date precipitation 10.43 8.36  
Snow  
Snow 0.00 in 0.00 in 0.00 in (2007)
Month to date snowfall T 0.0  
Since 1 July snowfall 30.0 14.9  
Snow Depth 0.00 in    
Sea Level Pressure  
Sea Level Pressure 29.89 in    
Wind  
Wind Speed 16 mph (SE)    
Max Wind Speed 35 mph    
Max Gust Speed 43 mph    
Visibility 9 miles    
Events Rain , Thunderstorm    
T = Trace of Precipitation, MM = Missing Value Source: NWS Daily Summary

Daily Weather History Graph

Daily Weather History Graph

Search for Another Location

Airport or City:

Trip Planner

Search our weather history database for the weather conditions in past years. The results will help you decide how hot, cold, wet, or windy it might be!

Date:

Astronomy

May. 08, 2013 Rise Set
Actual Time 6:26 AM CDT 8:26 PM CDT
Civil Twilight 5:57 AM CDT 8:55 PM CDT
Nautical Twilight 5:22 AM CDT 9:30 PM CDT
Astronomical Twilight 4:44 AM CDT 10:08 PM CDT
Moon 5:33 AM CDT (5/8) 7:26 PM CDT (5/8)
Length of Visible Light 14h 57m
Length of Day
14h 00m
Waning Crescent, 2% of the Moon is Illuminated
May 8
Waning Crescent
May 9
New
May 17
First Quarter
May 24
Full
May 31
Last Quarter

Hourly Weather History & Observations

Time (CDT) Temp. Dew Point Humidity Pressure Visibility Wind Dir Wind Speed Gust Speed Precip Events Conditions
12:35 AM 64.4 °F 48.2 °F 56% 29.94 in 10.0 mi ESE 11.5 mph - N/A Thunderstorm Thunderstorm
12:53 AM 64.9 °F 48.9 °F 56% 29.94 in 10.0 mi ENE 8.1 mph - N/A Thunderstorm Thunderstorm
1:23 AM 62.6 °F 51.8 °F 68% 29.98 in 10.0 mi NNE 6.9 mph - 0.00 in Rain Light Rain
1:36 AM 62.6 °F 53.6 °F 72% 29.97 in 10.0 mi NNE 9.2 mph - 0.00 in Rain , Thunderstorm Light Thunderstorms and Rain
1:53 AM 60.1 °F 55.0 °F 83% 29.94 in 10.0 mi ENE 9.2 mph - 0.00 in Rain , Thunderstorm Light Thunderstorms and Rain
2:53 AM 60.1 °F 55.0 °F 83% 29.91 in 7.0 mi East 13.8 mph - 0.08 in Rain , Thunderstorm Light Thunderstorms and Rain
3:44 AM 59.0 °F 55.4 °F 88% 30.00 in 10.0 mi NNW 17.3 mph - 0.02 in Rain , Thunderstorm Light Thunderstorms and Rain
3:53 AM 59.0 °F 55.9 °F 90% 29.97 in 6.0 mi North 13.8 mph 23.0 mph 0.04 in Rain , Thunderstorm Thunderstorms and Rain
4:22 AM 57.2 °F 57.2 °F 100% 29.97 in 5.0 mi ENE 15.0 mph - 0.09 in Rain , Thunderstorm Light Thunderstorms and Rain
4:36 AM 57.2 °F 57.2 °F 100% 29.93 in 2.0 mi East 21.9 mph - 0.32 in Rain , Thunderstorm Heavy Thunderstorms and Rain
4:53 AM 59.0 °F 57.0 °F 93% 29.91 in 10.0 mi East 16.1 mph 29.9 mph 0.36 in Rain , Thunderstorm Light Thunderstorms and Rain
5:24 AM 59.0 °F 57.2 °F 94% 29.92 in 10.0 mi ENE 11.5 mph - 0.01 in Rain Light Rain
5:53 AM 57.9 °F 57.0 °F 97% 29.91 in 10.0 mi ENE 4.6 mph - 0.01 in   Mostly Cloudy
6:53 AM 61.0 °F 55.9 °F 83% 29.91 in 10.0 mi ESE 13.8 mph - N/A   Mostly Cloudy
7:49 AM 60.8 °F 55.4 °F 82% 29.94 in 10.0 mi ESE 18.4 mph 25.3 mph 0.00 in Rain , Thunderstorm Light Thunderstorms and Rain
7:53 AM 60.1 °F 55.9 °F 86% 29.92 in 8.0 mi ESE 19.6 mph 26.5 mph 0.00 in Rain , Thunderstorm Light Thunderstorms and Rain
8:53 AM 57.9 °F 57.0 °F 97% 29.91 in 3.0 mi SE 29.9 mph 39.1 mph 0.07 in Rain , Thunderstorm Thunderstorms and Rain
9:00 AM 57.2 °F 57.2 °F 100% 29.91 in 5.0 mi SE 26.5 mph 39.1 mph 0.02 in Rain , Thunderstorm Light Thunderstorms and Rain
9:23 AM 59.0 °F 55.4 °F 88% 29.89 in 10.0 mi SE 23.0 mph 42.6 mph 0.02 in Rain Light Rain
9:53 AM 60.1 °F 55.9 °F 86% 29.88 in 10.0 mi SSE 19.6 mph 25.3 mph 0.02 in   Mostly Cloudy
10:53 AM 62.1 °F 57.0 °F 84% 29.88 in 10.0 mi SSE 15.0 mph - N/A   Mostly Cloudy
11:53 AM 69.1 °F 60.1 °F 73% 29.88 in 10.0 mi SSE 20.7 mph 25.3 mph N/A   Mostly Cloudy
12:53 PM 73.0 °F 61.0 °F 66% 29.88 in 10.0 mi South 18.4 mph - N/A   Scattered Clouds
1:53 PM 75.0 °F 61.0 °F 62% 29.87 in 10.0 mi South 18.4 mph 24.2 mph N/A   Scattered Clouds
2:53 PM 77.0 °F 61.0 °F 58% 29.85 in 10.0 mi South 16.1 mph - N/A   Mostly Cloudy
3:53 PM 78.1 °F 63.0 °F 60% 29.83 in 10.0 mi South 18.4 mph - N/A   Mostly Cloudy
4:53 PM 77.0 °F 63.0 °F 62% 29.82 in 10.0 mi South 12.7 mph - N/A   Mostly Cloudy
5:53 PM 77.0 °F 64.9 °F 66% 29.81 in 10.0 mi South 4.6 mph - N/A   Overcast
6:53 PM 75.9 °F 64.0 °F 67% 29.78 in 10.0 mi SSE 8.1 mph - N/A   Overcast
7:28 PM 75.2 °F 62.6 °F 65% 29.78 in 10.0 mi ESE 9.2 mph - N/A Thunderstorm Thunderstorm
7:43 PM 75.2 °F 62.6 °F 65% 29.80 in 10.0 mi South 15.0 mph 20.7 mph 0.00 in Rain , Thunderstorm Light Thunderstorms and Rain
7:53 PM 68.0 °F 64.0 °F 87% 29.78 in 2.0 mi South 19.6 mph 36.8 mph 0.06 in Rain , Thunderstorm Heavy Thunderstorms and Rain
8:01 PM 68.0 °F 64.4 °F 88% 29.80 in 6.0 mi South 25.3 mph 32.2 mph 0.06 in Rain , Thunderstorm Thunderstorms and Rain
8:15 PM 66.2 °F 62.6 °F 88% 29.81 in 2.5 mi South 21.9 mph 33.4 mph 0.14 in Rain , Thunderstorm Heavy Thunderstorms and Rain
8:23 PM 66.2 °F 62.6 °F 88% 29.80 in 7.0 mi South 17.3 mph 29.9 mph 0.22 in Rain , Thunderstorm Light Thunderstorms and Rain
8:44 PM 66.2 °F 60.8 °F 83% 29.89 in 10.0 mi West 25.3 mph 33.4 mph 0.22 in   Overcast
8:53 PM 64.0 °F 53.1 °F 67% 29.88 in 10.0 mi NW 26.5 mph 42.6 mph 0.22 in   Overcast
8:56 PM 62.6 °F 53.6 °F 72% 29.90 in 10.0 mi NW 23.0 mph 42.6 mph N/A   Overcast
9:53 PM 64.9 °F 50.0 °F 58% 29.86 in 10.0 mi Calm Calm - N/A   Mostly Cloudy
10:53 PM 61.0 °F 55.0 °F 81% 29.86 in 10.0 mi South 10.4 mph - 0.00 in Rain Light Rain
11:53 PM 61.0 °F 55.9 °F 83% 29.93 in 10.0 mi NW 24.2 mph 29.9 mph 0.00 in Rain Light Rain